Regional Weather Roundup
Issued by NWS

Home | Current Version | Previous Version | Text Only | Print | Product List | Glossary Off
Versions: 1 2 3 4 5 6 7 8 9 10 11 12 13 14 15 16 17 18 19 20 21 22 23 24 25 26 27 28 29 30 31 32 33 34 35 36 37 38 39 40 41 42 43 44 45 46 47 48 49 50

000
ASUS43 KIND 230359
RWRIN

WEATHER ROUNDUP FOR INDIANA
NATIONAL WEATHER SERVICE INDIANAPOLIS IN
1100 PM EST WED NOV 22 2017

NOTE: "FAIR" INDICATES FEW OR NO CLOUDS BELOW 12,000 FEET WITH NO
SIGNIFICANT WEATHER AND/OR OBSTRUCTIONS TO VISIBILITY.

* - STATION DOES NOT REPORT WEATHER SUCH AS PRECIPITATION OR FOG.

+ - STATION NOT QUALITY CONTROLLED BY THE NATIONAL WEATHER SERVICE.
    USE DATA WITH CAUTION...ESPECIALLY DEWPOINT AND RELATIVE
    HUMIDITY OBSERVATIONS.

INZ001>003-010>013-019-020-230500-
NORTHWEST INDIANA

CITY           SKY/WX    TMP DP  RH WIND       PRES   REMARKS
GARY /AIRPORT/ PTCLDY    32  18  55 CALM      30.21F
KNOX *+        MOCLDY    30  23  74 CALM      30.22S
LA PORTE +     PTCLDY    29  19  66 SW6       30.22R WCI  23
MICHIGAN CITY+ CLOUDY    30  19  64 S3        30.22S
MONTICELLO +   PTCLDY    28  23  82 SW3       30.23F
RENSSELAER +   CLOUDY    28  23  80 CALM      30.23S

$$

LMZ046-743>745-230500-
SOUTHERN LAKE MICHIGAN

STATION/POSITION TIME  TEMP    WIND        PRES    WAVE
                       AIR SEA DIR/SP/G            HT
                 (UTC) (F)     (DEG/KT/KT) (MB)    (FT)
BURNS HARBOR     0340   31     180/  7/  9 1023.4F
MICHIGAN CITY    0330   31     190/ 10/ 11   N/A

$$

INZ004-005-014>016-021>024-230500-
NORTH CENTRAL INDIANA

CITY           SKY/WX    TMP DP  RH WIND       PRES   REMARKS
GOSHEN         PTCLDY    29  22  75 S5        30.20F WCI  24
PERU/GRISSOM   PTCLDY    28  25  89 S3        30.22F
SOUTH BEND     MOCLDY    28  22  78 SW5       30.21F WCI  23
WARSAW +       PTCLDY    30  23  74 CALM      30.21F

$$

INZ006>009-017-018-025>027-230500-
NORTHEAST INDIANA

CITY           SKY/WX    TMP DP  RH WIND       PRES   REMARKS
AUBURN +       CLOUDY    28  21  74 CALM      30.22F
FORT WAYNE     CLOUDY    30  25  81 S6        30.23F WCI  24
KENDALLVILLE + CLOUDY    28  22  76 S5        30.21S WCI  23

$$

INZ028-029-035-036-043>045-051>053-230500-
WEST CENTRAL INDIANA

CITY           SKY/WX    TMP DP  RH WIND       PRES   REMARKS
CRAWFORDSVL +  PTCLDY    24  24 100 MISG      30.23R
GREENCASTLE +  PTCLDY    27  23  86 CALM      30.24F
LAFAYETTE      PTCLDY    27  23  85 CALM      30.24F
TERRE HAUTE    CLOUDY    27  22  81 CALM      30.25F

$$

INZ030>032-037>040-046>048-054>057-064-065-230500-
CENTRAL INDIANA

CITY           SKY/WX    TMP DP  RH WIND       PRES   REMARKS
FRANKFORT +    PTCLDY    29  27  91 CALM      30.25F
GREENWOOD *+   CLOUDY    28  25  87 SE3       30.24F
INDIANAPOLIS   MOCLDY    30  23  75 CALM      30.24F
-EAGLE CREEK   CLOUDY    29  23  78 CALM      30.24S
KOKOMO +       CLOUDY    28  25  88 CALM      30.24F
MT COMFORT *+  PTCLDY    23  23 100 CALM      30.23F
SHELBYVILLE    CLOUDY    26  20  77 N3        30.24S

$$

INZ033-034-041-042-049-050-058-059-230500-
EAST CENTRAL INDIANA

CITY           SKY/WX    TMP DP  RH WIND       PRES   REMARKS
MUNCIE         CLOUDY    28  22  78 CALM      30.23F
RICHMOND +     CLOUDY    25  23  93 CALM      30.24S

$$

INZ060-061-067>069-081>083-085>088-230500-
SOUTHWEST INDIANA

CITY           SKY/WX    TMP DP  RH WIND       PRES   REMARKS
EVANSVILLE     PTCLDY    28  24  85 CALM      30.28S
HUNTINGBURG +  CLOUDY    28  23  81 CALM      30.26S

$$

INZ062-063-066-070>080-084-089>092-230500-
SOUTH CENTRAL AND SOUTHEAST INDIANA

CITY           SKY/WX    TMP DP  RH WIND       PRES   REMARKS
BLOOMINGTON    CLOUDY    26  20  77 CALM      30.24S
MADISON *+     CLOUDY    27  23  86 CALM      30.26S
SEYMOUR +      CLOUDY    27  23  86 CALM      30.26S

$$





USA.gov is the U.S. government's official web portal to all federal, state and local government web resources and services.